Vertical_Velocity
0 -1 3 -7 7 8 -2 -8 0 -4 -0 -11 5 7 6 8 4 4 -5 -4 26 -3 -2 -6 1 1 1 2 -1 2 -2 0 -1 2 0 -2 -1 0 0 -1 -2 -1 0 -0 -1 -2 -1 -0 0
-7 -5 1 2 8 6 -7 -5 -1 -6 -12 1 9 4 -4 3 -0 0 4 1 -8 6 -4 -4 0 3 -1 2 2 -1 1 -2 -1 3 3 2 -1 0 0 1 1 -2 -2 -2 -1 -1 -0 -1 -1
-2 -4 6 1 1 -2 -3 -3 -5 -9 -3 4 -3 -0 -1 4 -6 -4 -4 7 5 -4 3 -8 -1 4 -2 1 0 1 -0 0 -2 1 3 2 3 -0 1 -1 -0 -0 -2 -3 -4 -2 -2 2 1
-1 1 -5 7 -3 -12 -3 -6 -1 -3 -5 7 2 0 -3 2 -5 -14 -1 26 -18 6 3 1 -2 5 0 -1 1 1 -1 2 -1 1 4 4 4 0 0 -0 -2 -0 -2 -1 1 -2 -1 -1 1
3 5 3 3 -8 -6 -3 -5 0 -1 -2 1 3 2 -0 -9 -11 -10 1 -2 -16 3 -2 1 3 5 0 -1 1 -0 -1 2 -0 -0 2 4 7 -1 1 -1 -1 -2 -0 1 -0 0 -2 -0 -1
4 3 5 0 -5 -5 -2 -7 5 2 -4 -8 10 4 -4 7 -1 -13 13 0 -3 -8 4 -7 1 8 3 2 2 3 -0 2 2 1 2 11 5 -0 1 1 -2 -1 -2 -0 1 2 1 -1 -1
7 5 -4 -1 -5 -0 -8 -1 3 -1 0 -13 0 0 1 -8 -3 2 -4 4 1 3 9 9 10 -1 1 1 -1 4 2 2 2 -0 5 5 -1 0 -1 2 1 -0 1 -1 -2 -1 -0 -1 -0
4 8 2 -4 -2 -16 -11 1 9 7 -24 -7 9 -1 -2 -10 -19 -5 20 -6 8 -5 12 -23 71 16 5 -3 -1 -3 2 -2 1 2 0 2 -1 1 2 1 2 -1 -1 0 -0 -2 -1 -0 -1
7 6 -0 -8 5 -17 -6 6 -18 2 15 -3 -3 5 3 5 -1 -12 6 2 4 10 35 -44 22 -3 37 20 4 1 3 3 1 5 2 -1 -2 -1 -1 3 0 -2 -1 -1 0 0 0 0 -0
4 5 -7 -3 -1 -2 -3 10 1 15 -2 -5 -4 -9 10 -1 5 -10 -3 -7 -7 2 9 10 -30 -6 2 8 17 -2 4 1 3 3 1 -1 -4 -1 -1 2 3 -2 -1 -1 -1 -1 -0 -2 0
-3 -1 -4 -12 2 10 1 -1 0 5 -5 -3 -3 -0 -12 10 4 12 -1 -11 -4 3 -3 -17 25 9 -3 -0 60 3 -2 2 -1 2 -2 2 1 -0 -4 1 1 -1 -2 -0 -2 -1 0 1 -1
10 -3 2 -11 -1 3 -0 -0 -5 7 -14 9 3 -5 17 2 -19 12 2 9 2 -7 -3 -12 -28 -4 -34 -25 -4 43 4 3 0 -2 -4 5 -4 -0 -1 -0 1 1 -1 -1 -0 -1 -2 1 1
8 -4 2 -1 1 -3 2 -4 -3 -8 -5 -7 -0 7 12 -11 -16 11 3 2 1 -2 19 -19 -18 -18 -20 14 -5 29 -4 4 2 1 2 5 -4 -4 -2 1 -0 -1 -1 -2 -2 -2 -1 -4 -1
-1 1 -4 -3 -5 -0 12 -10 31 -22 -6 -6 8 3 -1 0 -12 -5 9 -1 -1 2 -6 23 22 27 -25 3 6 4 12 2 2 1 4 5 -0 -2 -0 -2 -2 -2 -1 1 -2 -1 -1 1 -2
2 4 -2 -4 -7 -7 8 3 -3 -8 -8 -2 1 -14 -6 1 -7 -23 13 -1 -6 0 3 7 0 19 -47 -11 -9 21 10 13 -4 -6 3 -2 -2 -1 0 -2 -2 -1 -1 2 1 -0 0 -2 5
6 7 3 -11 2 -23 26 -17 -10 -14 7 -7 -6 -1 5 -4 -5 14 -0 -7 1 -6 2 3 5 21 1 -20 9 -5 28 11 2 1 -3 5 -0 -0 -0 1 0 3 0 -0 -0 2 -3 4 -2
2 -1 2 -9 -1 2 9 -8 -15 -12 11 -4 -3 0 -3 6 -9 9 -2 -1 13 0 4 -3 4 -12 5 -32 -9 8 10 5 5 8 1 -1 -0 1 2 1 -0 1 3 1 1 4 2 -3 -2
-1 2 -2 0 -9 -0 3 -5 -5 3 4 -1 -6 -2 3 4 7 2 4 -1 -12 5 4 2 -1 -10 12 -8 -36 -0 12 5 10 -3 1 -0 -0 0 1 -1 -0 3 2 -1 -3 -3 5 -2 1
2 5 2 -7 -10 8 -3 -1 -7 -4 2 -2 1 7 -4 14 -2 -5 -1 7 -23 16 4 2 3 4 9 -7 -10 19 -6 -2 -2 8 9 2 7 11 4 -1 -1 -1 -2 -2 3 1 -0 -0 -3
3 3 -8 -8 -3 12 0 -5 -3 0 -1 1 -2 1 3 3 4 -6 8 -2 4 -6 4 -4 9 -1 9 5 9 11 4 8 17 13 1 5 5 -1 -0 -2 -2 -0 6 2 1 2 -4 1 1
-3 3 -2 2 -2 1 3 2 2 -3 0 -1 -2 -5 6 8 -2 3 -5 6 -13 6 -2 17 10 6 9 1 2 -2 -1 12 3 -3 7 24 16 1 -2 0 -4 2 -4 6 -1 2 2 -1 1
3 -2 2 1 4 -2 -1 -2 2 -0 -2 -0 -1 2 -2 -1 2 6 5 -12 -4 35 -1 -2 12 7 3 -2 -2 1 -9 9 -1 -3 -7 4 -3 -5 -6 -7 1 0 -3 -6 -0 -2 -1 -0 -8
-8 -0 -4 0 0 -1 2 3 4 -0 -1 -1 0 2 1 3 -1 5 2 -7 -7 -2 -4 -6 4 12 4 -6 -5 2 -18 -13 2 -23 -1 -6 -7 -8 6 6 -1 -6 -5 -4 1 -9 -7 -2 -6
-2 1 1 0 1 3 0 2 4 -0 0 -2 0 0 3 1 5 6 0 0 -2 1 6 2 6 23 5 -10 -20 -1 13 -7 -6 -9 -19 -23 -2 -3 -1 -3 10 8 -6 12 -0 -4 -2 1 -3
5 3 2 5 2 3 -0 -1 2 0 0 1 0 2 2 7 1 2 0 -10 -2 3 6 -2 -7 1 2 -1 2 -4 4 11 0 -5 -4 0 2 6 -8 1 -7 66 -30 5 18 12 -17 11 0
-1 -1 2 2 1 2 -1 0 4 1 2 1 2 -1 4 -5 5 6 5 -2 -4 -2 -2 -0 5 7 2 1 7 11 9 -4 -10 8 5 1 -5 1 11 4 22 -24 3 16 -4 -21 -2 7 4
-3 -1 -2 2 0 -2 1 3 4 -0 1 1 1 -0 0 8 2 2 -0 -4 -3 2 3 3 1 1 -0 5 4 1 -1 4 2 9 9 6 4 0 -4 5 4 5 -1 -1 -3 -1 6 14 -6
2 -0 -5 -1 -0 -0 1 1 4 1 3 2 2 1 5 3 -6 -0 -2 -5 -1 -2 -3 3 2 2 -0 2 0 3 -1 1 -1 -0 -1 -2 0 2 -2 1 0 0 -1 -1 3 5 7 0 -1
-1 -2 -1 -0 -3 -1 -1 3 1 1 1 1 2 2 4 5 4 3 4 0 0 1 0 -3 -3 -2 1 2 2 1 1 -2 0 -0 2 1 4 4 2 2 1 -0 0 2 3 2 -3 2 2
1 1 1 -3 -5 0 -3 4 1 1 1 -2 2 0 -1 -1 -3 -2 -2 -2 -4 0 2 4 2 1 3 -0 2 3 2 -2 -0 -1 1 5 -5 -2 2 -1 2 -3 -4 1 -1 1 2 2 -1
Height
1501 1504 1507 1509 1513 1501 1497 1490 1479 1476 1473 1469 1468 1468 1473 1472 1478 1492 1488 1488 1494 1488 1493 1496 1500 1502 1505 1507 1509 1511 1513 1515 1518 1520 1523 1526 1528 1530 1532 1534 1535 1537 1539 1541 1542 1544 1546 1547 1548
1499 1503 1507 1507 1506 1503 1492 1483 1481 1477 1472 1469 1467 1467 1472 1479 1479 1486 1487 1487 1491 1489 1494 1496 1500 1502 1505 1507 1508 1510 1512 1514 1517 1520 1522 1525 1527 1530 1532 1534 1536 1538 1540 1541 1543 1545 1547 1548 1549
1500 1503 1506 1502 1497 1496 1487 1474 1474 1473 1471 1469 1471 1472 1475 1481 1481 1484 1488 1489 1485 1491 1494 1497 1500 1502 1504 1507 1508 1509 1512 1513 1515 1519 1522 1525 1527 1529 1532 1534 1537 1539 1540 1542 1544 1547 1548 1550 1551
1502 1505 1505 1497 1489 1484 1483 1476 1470 1472 1468 1467 1469 1475 1479 1480 1481 1480 1490 1487 1489 1494 1493 1497 1500 1502 1504 1507 1508 1510 1511 1513 1515 1518 1522 1525 1527 1529 1532 1534 1536 1539 1540 1543 1545 1547 1549 1551 1553
1503 1502 1501 1493 1490 1482 1476 1475 1472 1471 1468 1465 1468 1472 1477 1477 1481 1481 1491 1485 1490 1494 1493 1499 1500 1502 1504 1506 1508 1510 1511 1513 1515 1518 1522 1525 1526 1529 1531 1533 1536 1539 1542 1544 1546 1548 1550 1552 1553
1502 1499 1495 1493 1489 1481 1479 1476 1474 1469 1466 1465 1465 1470 1474 1476 1479 1484 1485 1484 1485 1490 1492 1498 1501 1503 1504 1506 1508 1510 1511 1513 1515 1519 1522 1525 1527 1528 1531 1533 1536 1539 1542 1545 1547 1549 1550 1552 1554
1498 1496 1492 1489 1485 1478 1475 1475 1472 1471 1467 1464 1466 1468 1474 1475 1480 1479 1485 1486 1486 1489 1486 1497 1501 1503 1504 1506 1508 1511 1512 1513 1515 1518 1521 1524 1526 1528 1530 1533 1536 1539 1542 1545 1548 1550 1551 1552 1554
1497 1496 1491 1486 1485 1479 1473 1471 1469 1469 1466 1465 1466 1466 1471 1470 1476 1480 1481 1484 1485 1486 1485 1489 1500 1505 1505 1505 1507 1510 1511 1512 1514 1517 1520 1523 1525 1527 1530 1532 1535 1539 1542 1545 1548 1550 1552 1553 1554
1496 1495 1488 1486 1485 1478 1474 1471 1468 1467 1465 1465 1463 1466 1470 1470 1471 1476 1480 1477 1482 1483 1486 1485 1491 1496 1499 1507 1507 1509 1510 1511 1513 1515 1518 1522 1524 1526 1530 1532 1534 1538 1542 1545 1548 1550 1552 1554 1555
1494 1490 1485 1483 1480 1476 1474 1472 1470 1467 1463 1460 1462 1465 1470 1469 1470 1473 1475 1475 1478 1475 1477 1468 1477 1493 1497 1499 1506 1507 1508 1509 1511 1513 1516 1520 1523 1525 1529 1532 1534 1538 1542 1544 1547 1550 1552 1553 1554
1490 1486 1484 1480 1478 1477 1474 1469 1468 1466 1461 1461 1461 1464 1466 1465 1469 1473 1470 1470 1472 1474 1471 1476 1489 1487 1494 1496 1501 1505 1505 1506 1507 1510 1514 1518 1522 1524 1527 1531 1534 1537 1540 1544 1546 1549 1551 1552 1553
1488 1485 1483 1480 1479 1476 1474 1471 1467 1464 1461 1461 1460 1461 1464 1463 1464 1472 1471 1468 1466 1471 1473 1470 1479 1485 1486 1492 1494 1499 1501 1501 1503 1507 1511 1516 1520 1524 1526 1530 1533 1536 1539 1542 1545 1547 1550 1552 1552
1481 1479 1478 1477 1476 1475 1473 1469 1468 1460 1460 1460 1457 1457 1459 1462 1464 1464 1469 1467 1468 1469 1472 1472 1475 1478 1482 1483 1484 1487 1497 1500 1501 1504 1509 1514 1517 1522 1526 1529 1532 1535 1538 1540 1543 1546 1548 1550 1552
1482 1478 1476 1475 1473 1472 1471 1467 1466 1461 1462 1458 1457 1455 1456 1458 1460 1462 1467 1465 1465 1469 1470 1477 1484 1478 1474 1479 1474 1482 1493 1497 1499 1503 1507 1511 1514 1520 1524 1527 1531 1534 1536 1539 1542 1545 1547 1549 1550
1481 1479 1474 1472 1471 1469 1471 1462 1460 1462 1461 1457 1454 1455 1456 1455 1457 1464 1462 1461 1462 1467 1470 1473 1473 1472 1474 1478 1475 1483 1491 1494 1496 1501 1506 1509 1513 1518 1522 1525 1529 1532 1535 1538 1540 1543 1545 1547 1550
1483 1479 1475 1462 1465 1463 1469 1459 1457 1458 1458 1455 1453 1453 1452 1454 1457 1459 1459 1462 1459 1465 1469 1470 1469 1465 1470 1473 1478 1483 1486 1489 1494 1499 1505 1510 1512 1516 1521 1524 1528 1531 1533 1536 1537 1540 1542 1544 1546
1481 1479 1471 1461 1457 1456 1460 1457 1450 1452 1451 1450 1450 1448 1450 1450 1452 1454 1456 1458 1458 1459 1463 1465 1467 1465 1471 1477 1478 1482 1483 1490 1494 1498 1504 1508 1511 1515 1519 1522 1526 1529 1532 1534 1535 1538 1539 1542 1544
1475 1471 1466 1464 1454 1453 1450 1449 1447 1442 1444 1443 1444 1444 1446 1447 1448 1451 1453 1454 1458 1458 1460 1463 1464 1467 1470 1466 1477 1485 1484 1488 1492 1497 1501 1505 1509 1513 1517 1519 1523 1526 1529 1531 1533 1536 1536 1539 1541
1470 1467 1461 1456 1454 1456 1450 1449 1444 1445 1441 1440 1440 1441 1442 1444 1444 1448 1452 1452 1455 1458 1458 1462 1466 1467 1468 1466 1477 1481 1484 1489 1490 1495 1500 1502 1507 1511 1513 1517 1519 1522 1524 1527 1530 1532 1533 1536 1539
1467 1462 1458 1452 1449 1453 1449 1445 1441 1440 1442 1442 1441 1440 1440 1442 1441 1446 1450 1450 1454 1458 1459 1460 1460 1463 1468 1474 1475 1479 1484 1490 1492 1493 1496 1501 1503 1506 1510 1512 1516 1519 1520 1523 1525 1528 1529 1532 1535
1460 1455 1454 1456 1452 1448 1443 1445 1442 1441 1441 1440 1441 1442 1441 1441 1445 1445 1447 1452 1454 1457 1456 1455 1456 1463 1465 1471 1474 1478 1480 1485 1487 1493 1495 1498 1501 1505 1507 1510 1512 1514 1515 1518 1521 1523 1525 1527 1530
1455 1446 1446 1453 1448 1447 1445 1462 1443 1447 1444 1441 1441 1441 1441 1444 1447 1449 1451 1452 1457 1455 1454 1454 1456 1457 1465 1469 1473 1476 1482 1482 1487 1490 1492 1495 1499 1502 1504 1506 1507 1508 1509 1512 1514 1518 1519 1520 1523
1450 1440 1448 1443 1443 1439 1441 1442 1451 1451 1447 1448 1444 1444 1446 1447 1447 1446 1446 1449 1454 1454 1457 1458 1458 1460 1463 1467 1473 1476 1479 1483 1485 1485 1490 1493 1497 1498 1500 1501 1500 1502 1504 1506 1506 1510 1514 1515 1516
1444 1442 1442 1444 1442 1437 1436 1439 1451 1456 1457 1454 1451 1447 1448 1448 1446 1446 1448 1450 1456 1456 1455 1459 1463 1461 1460 1466 1471 1476 1479 1481 1482 1483 1487 1490 1489 1493 1493 1495 1496 1494 1497 1499 1500 1500 1507 1508 1507
1443 1440 1432 1432 1431 1438 1442 1439 1455 1456 1456 1456 1453 1451 1450 1448 1450 1450 1449 1454 1455 1455 1458 1458 1460 1463 1465 1469 1474 1473 1477 1477 1478 1481 1484 1484 1487 1487 1485 1490 1490 1486 1494 1494 1492 1493 1502 1505 1501
1442 1442 1438 1425 1429 1441 1440 1449 1454 1458 1455 1457 1455 1455 1457 1451 1455 1454 1454 1456 1459 1459 1461 1464 1468 1465 1469 1471 1471 1472 1471 1473 1473 1476 1478 1479 1482 1484 1484 1486 1486 1486 1489 1490 1488 1492 1495 1496 1492
1434 1436 1436 1433 1426 1437 1448 1457 1459 1459 1457 1456 1457 1459 1461 1461 1458 1457 1461 1462 1465 1466 1466 1467 1466 1467 1469 1470 1469 1469 1470 1469 1471 1472 1474 1475 1477 1478 1479 1481 1481 1482 1483 1484 1485 1486 1490 1492 1493
1436 1429 1434 1431 1432 1440 1441 1446 1450 1460 1460 1461 1464 1466 1465 1463 1462 1466 1466 1467 1469 1470 1471 1470 1470 1470 1471 1471 1470 1469 1468 1469 1470 1471 1471 1473 1473 1473 1474 1474 1474 1475 1475 1477 1479 1481 1483 1486 1488
1435 1432 1426 1425 1429 1434 1442 1460 1453 1459 1462 1464 1466 1467 1467 1467 1469 1470 1471 1472 1473 1475 1476 1475 1474 1474 1474 1472 1471 1470 1470 1469 1470 1470 1470 1470 1470 1469 1469 1469 1467 1469 1469 1471 1474 1475 1479 1479 1482
1437 1430 1425 1440 1435 1432 1444 1467 1455 1459 1464 1467 1469 1469 1470 1470 1473 1474 1475 1475 1474 1476 1476 1476 1475 1476 1474 1470 1470 1470 1468 1469 1468 1469 1468 1467 1463 1467 1466 1464 1463 1463 1465 1466 1467 1472 1473 1475 1477